TimeCDT,TemperatureF,Dew PointF,Humidity,Sea Level PressureIn,VisibilityMPH,Wind Direction,Wind SpeedMPH,Gust SpeedMPH,PrecipitationIn,Events,Conditions,WindDirDegrees,DateUTC
12:56 AM,51.1,45.0,80,29.98,10.0,WNW,6.9,-,N/A,,Clear,290,2013-09-20 05:56:00
1:56 AM,50.0,44.1,80,29.99,10.0,WNW,8.1,-,N/A,,Clear,290,2013-09-20 06:56:00
2:56 AM,48.9,44.1,83,29.98,10.0,West,8.1,-,N/A,,Clear,280,2013-09-20 07:56:00
3:56 AM,48.0,44.1,86,29.99,10.0,West,8.1,-,N/A,,Clear,280,2013-09-20 08:56:00
4:56 AM,46.9,44.1,90,29.99,10.0,West,8.1,-,N/A,,Partly Cloudy,280,2013-09-20 09:56:00
5:56 AM,46.9,44.1,90,29.99,10.0,West,10.4,-,N/A,,Scattered Clouds,280,2013-09-20 10:56:00
6:47 AM,50.0,44.6,82,30.00,10.0,WNW,9.2,-,N/A,,Overcast,290,2013-09-20 11:47:00
6:56 AM,50.0,46.0,86,30.01,10.0,WNW,9.2,-,N/A,,Overcast,290,2013-09-20 11:56:00
7:56 AM,51.1,46.9,86,30.03,10.0,NW,15.0,20.7,N/A,,Overcast,310,2013-09-20 12:56:00
7:59 AM,51.8,46.4,82,30.02,10.0,NW,11.5,20.7,N/A,,Overcast,310,2013-09-20 12:59:00
8:18 AM,51.8,46.4,82,30.02,10.0,NW,10.4,18.4,N/A,,Overcast,310,2013-09-20 13:18:00
8:56 AM,51.1,46.9,86,30.04,10.0,WNW,9.2,-,N/A,,Mostly Cloudy,290,2013-09-20 13:56:00
9:56 AM,54.0,46.0,75,30.04,10.0,WNW,18.4,-,N/A,,Mostly Cloudy,300,2013-09-20 14:56:00
10:56 AM,55.9,46.0,69,30.04,10.0,NW,13.8,23.0,N/A,,Mostly Cloudy,320,2013-09-20 15:56:00
11:46 AM,57.2,44.6,63,30.03,10.0,NW,17.3,24.2,N/A,,Mostly Cloudy,310,2013-09-20 16:46:00
11:56 AM,60.1,45.0,57,30.04,10.0,WNW,12.7,23.0,N/A,,Mostly Cloudy,290,2013-09-20 16:56:00
12:56 PM,60.1,44.1,55,30.03,10.0,NW,13.8,23.0,N/A,,Mostly Cloudy,320,2013-09-20 17:56:00
1:56 PM,62.1,42.1,48,30.01,10.0,WNW,15.0,27.6,N/A,,Partly Cloudy,300,2013-09-20 18:56:00
2:56 PM,63.0,42.1,46,30.00,10.0,NW,18.4,25.3,N/A,,Partly Cloudy,320,2013-09-20 19:56:00
3:56 PM,63.0,41.0,45,29.99,10.0,NW,18.4,29.9,N/A,,Partly Cloudy,310,2013-09-20 20:56:00
4:56 PM,64.0,39.0,40,29.99,10.0,NW,16.1,25.3,N/A,,Partly Cloudy,310,2013-09-20 21:56:00
5:56 PM,63.0,39.0,41,29.99,10.0,NW,13.8,-,N/A,,Partly Cloudy,320,2013-09-20 22:56:00
6:56 PM,60.1,39.9,47,29.99,10.0,NW,6.9,-,N/A,,Partly Cloudy,320,2013-09-20 23:56:00
7:56 PM,52.0,42.1,69,30.00,10.0,Calm,Calm,-,N/A,,Clear,0,2013-09-21 00:56:00
8:56 PM,48.9,42.1,77,30.01,10.0,Calm,Calm,-,N/A,,Clear,0,2013-09-21 01:56:00
9:56 PM,48.9,42.1,77,30.01,10.0,Calm,Calm,-,N/A,,Clear,0,2013-09-21 02:56:00
10:56 PM,45.0,39.0,80,30.02,10.0,Calm,Calm,-,N/A,,Clear,0,2013-09-21 03:56:00
11:56 PM,42.1,39.0,89,30.01,10.0,Calm,Calm,-,N/A,,Clear,0,2013-09-21 04:56:00